STARLINK-36151, 67123

Orbit data source: Space-Track

STARLINK-36151, 67123 is a payload satellite owned by SpaceX/Seattle (US) in LEO that was launched on Mon, 15 Dec 2025 UTC via an FALCON 9 launch vehicle from the Air Force Eastern Test Range (AFETR). Payload-class satellites include a variety of spacecraft equipped with specific instruments for various scientific and technological missions. These include communications satellites like Starlink; space stations such as the ISS; scientific satellites like the Hubble; Earth observation satellites from companies like Planet Labs, Umbra, and HawkEye 360; GPS; miniature CubeSats for education and research; and military/defense satellites.

Not visible in the next 10 days
Identifier
67123, 2025-299X
Orbit
LEO
Country
Flag of USUS
Related business
Manufacturer
SpaceX/Seattle
Mission
Operational spacecraft
Bus & Motor
STARLINK V2MO, Unknown motor
Mass
575 kg wet, ~530 kg dry
Launch date (UTC)
2025-12-15 (1 week ago)
Launch vehicle
FALCON 9
Launch site
Air Force Eastern Test Range (AFETR)
Object type
Payload
Rocket body
Debris
Shape & HBR
Unknown
Radar Cross Section
RCS unknown

Expand to show TLE details & history
Last TLE update: 5 hours ago

TLE from 5 hours ago
0 STARLINK-36151
1 67123U 25299X   25355.50002315 -.01578027  72333-3 -37617-2 0  9991
2 67123  42.9999 263.1995 0002278 265.3531  78.2145 15.95798220  2223
Epoch: 2025-12-21T12:00Z
TLE epoch observation values (Epoch: 2025-12-21T12:00:02.000Z)
Latitude
-11.22943°
Longitude
-19.34251°
Altitude
287.679 km
Speed
7.736 km/s
True Right ascension
16h 43m 54s
True Declination
-11° 09' 34"
Sunlit
Object was in daylight at epoch
Visualization orbit readout
Latitude
Unknown
Longitude
Unknown
Altitude
Unknown
Speed
Unknown
Apparent Right ascension
Unknown
Apparent Declination
Unknown
Sunlit
N/A
Visualization observer readout
Local Sidereal Time
15:45:54
Azimuth
Unknown
Elevation
Unknown
Doppler factor
Unknown
Orbital elements
Apogee altitude
289.612 km
Perigee altitude
286.575 km
Semi-major axis
6,666.231 km
Eccentricity
0.00023
Inclination
42.9999°
RAAN
263.1995°
Arg. of periapsis
265.3531°
True anomaly
78.24006°
Mean anomaly
78.2145°
Eccentric anomaly
78.22728°
Mean motion
3.9877 °/min
Orbital period
90.28 mins
BSTAR
-0.0037617
Loading maneuver chart data...
Computing Atmospheric mass density...
Loading historical data...
Loading historical data...
Loading historical data...
Loading historical data...
Loading historical data...
Loading historical data...
Loading historical data...

Documentation

Showing up to 5 results
|